SCP
2 2 1 1 1 1 1 1 1 1 1 1 1 1 1 1 1 1 1 1 2 2 2 2 1 1 1 2 2 3 3 3 2 2 1 1 1 1 1 1 1 1 1
2 2 1 1 1 1 1 1 1 0 0 1 1 1 1 1 1 1 1 1 2 2 2 2 1 1 1 2 2 2 3 3 3 2 1 1 1 1 1 1 1 1 1
2 2 1 1 1 1 1 1 1 0 0 0 1 1 1 1 1 1 1 1 1 2 2 2 2 1 1 1 1 2 3 3 4 3 2 1 1 1 1 1 1 1 1
2 2 1 1 1 1 1 1 1 1 0 0 0 1 1 1 1 1 1 1 1 2 2 2 2 2 1 1 1 1 2 3 4 4 3 2 2 2 1 1 1 1 1
2 2 1 1 1 1 1 1 1 1 1 0 0 0 1 1 1 1 1 1 1 1 1 1 1 1 1 1 1 1 1 2 3 4 4 4 3 2 1 1 1 1 1
2 2 2 1 1 1 1 1 1 1 1 1 1 0 0 0 0 1 1 1 1 1 1 1 1 1 1 1 1 1 1 1 2 3 4 4 3 2 1 1 1 1 1
2 2 2 1 1 1 1 1 1 0 0 1 0 0 0 0 0 1 1 1 1 1 1 1 1 1 1 1 1 1 1 1 1 2 2 3 2 2 1 1 1 1 1
2 2 2 1 1 1 1 1 0 0 0 0 0 0 0 0 0 1 0 0 0 1 1 0 0 0 0 1 1 1 1 1 1 1 1 2 2 1 1 1 1 1 1
2 2 2 1 1 1 1 1 0 0 0 0 0 0 0 0 0 0 0 0 0 0 0 0 0 0 0 0 0 1 1 1 1 1 1 1 1 1 1 1 1 1 1
1 1 1 1 1 1 1 1 0 0 0 0 0 0 0 0 0 0 0 0 0 0 0 0 0 0 0 0 0 0 0 0 0 0 1 1 1 1 1 1 1 1 1
1 1 1 1 1 1 1 1 0 0 0 0 0 0 0 0 0 0 0 0 0 0 0 0 0 0 0 0 0 0 0 0 0 0 0 0 1 1 1 1 1 1 1
1 1 1 1 1 1 1 1 0 0 0 0 0 0 0 0 0 0 0 0 0 0 0 0 0 0 0 0 0 0 0 0 0 0 0 0 0 0 0 0 1 1 1
2 2 2 1 1 1 1 1 0 0 0 0 0 0 0 0 0 0 0 0 0 0 0 0 0 0 0 0 0 0 0 0 0 0 0 0 0 0 0 0 0 0 0
2 2 2 2 1 1 1 1 0 0 0 0 0 0 0 0 0 0 0 0 0 0 0 0 0 0 0 0 0 0 0 0 0 0 0 0 0 0 0 0 0 0 0
2 1 1 1 1 1 1 1 0 0 0 0 0 0 0 0 0 0 0 0 0 0 0 0 0 0 0 0 0 0 0 0 0 0 0 0 0 0 0 0 0 0 0
1 0 0 1 1 0 0 0 0 0 0 0 0 0 0 0 0 0 0 0 0 0 0 0 0 0 0 0 0 0 0 0 0 0 0 0 0 0 0 0 0 0 0
0 0 0 0 0 0 0 0 0 0 0 0 0 0 0 0 0 0 0 0 0 0 0 0 0 0 0 0 0 0 0 0 0 0 0 0 0 0 0 0 0 0 0
0 0 0 0 0 0 0 0 0 0 0 0 0 0 0 0 0 0 0 0 0 0 0 0 0 0 0 0 0 0 0 0 0 0 0 0 0 0 0 0 0 0 0
0 0 0 0 0 0 0 0 0 0 0 0 0 0 0 0 0 0 0 0 0 0 0 0 0 0 0 0 0 0 0 0 0 0 0 0 0 0 0 0 0 0 0
0 0 0 0 0 0 0 0 0 0 0 0 0 0 0 0 0 0 0 0 0 0 0 0 0 0 0 0 0 0 0 0 0 0 0 0 0 0 0 0 0 0 0
0 0 0 0 0 0 0 0 0 0 0 0 0 0 0 0 0 0 0 0 0 0 0 0 0 0 0 0 0 0 0 0 0 0 0 0 0 0 0 0 0 0 0
0 0 0 0 0 0 0 0 0 0 0 0 0 0 0 0 0 0 0 0 0 0 0 0 0 0 0 0 0 0 0 0 0 0 0 0 0 0 0 0 0 0 0
0 0 0 0 0 0 0 0 0 0 0 0 0 0 0 0 0 0 0 0 0 0 0 0 0 0 0 0 0 0 0 0 0 0 0 0 0 0 0 0 0 0 0
0 0 0 0 0 0 0 0 0 0 0 0 0 0 0 0 0 0 0 0 0 0 0 0 0 0 0 0 0 0 0 0 0 0 0 0 0 0 0 0 0 0 0
0 0 0 0 0 0 0 0 0 0 0 0 0 0 0 0 0 0 0 0 0 0 0 0 0 0 0 0 0 0 0 0 0 0 0 0 0 0 0 0 0 0 0
0 0 0 0 0 0 0 0 0 0 0 0 0 0 0 0 0 0 0 0 0 0 0 0 0 0 0 0 0 0 0 0 0 0 0 0 0 0 0 0 0 0 0
Wind_Speed
0 0 1 1 1 1 1 2 2 3 3 3 3 2 1 1 1 2 1 3 4 6 7 8 9 9 9 9 10 10 10 11 11 11 11 12 13 12 12 12 12 13 12
1 0 0 1 1 2 2 1 2 2 2 2 3 2 2 1 1 2 2 2 4 6 7 8 8 8 8 9 10 9 8 8 10 10 11 11 12 13 13 13 13 13 12
1 1 0 0 1 1 2 1 2 1 2 2 3 3 1 1 1 2 2 1 2 4 6 6 7 8 9 9 9 9 8 7 8 9 10 11 11 11 12 12 12 12 12
2 1 0 0 1 1 1 1 1 1 2 2 3 2 2 1 1 1 1 1 1 2 3 5 6 7 8 8 8 8 8 7 7 7 8 9 10 10 10 11 11 11 11
1 1 0 1 1 1 1 1 1 1 1 2 3 2 2 1 1 1 1 1 2 2 1 3 3 4 6 7 7 7 7 7 6 6 6 7 8 9 10 11 11 11 11
1 1 0 1 1 1 1 1 1 1 1 2 2 2 2 1 1 0 1 1 1 1 1 0 0 2 3 3 4 5 7 7 6 5 5 6 6 7 8 9 10 11 11
0 1 1 1 1 1 1 1 1 2 2 1 1 3 3 2 1 1 1 0 1 1 0 0 0 0 1 2 2 3 5 5 5 5 5 5 5 6 7 8 9 9 10
1 1 1 0 1 1 2 2 1 1 1 1 1 1 3 4 3 2 1 1 1 1 1 1 1 0 0 0 1 2 1 2 2 3 3 3 4 5 6 7 8 9 10
1 1 0 0 0 1 0 1 1 0 1 1 0 2 1 2 3 2 2 1 1 1 1 1 1 0 0 0 0 1 1 1 1 2 2 2 2 3 4 5 6 7 10
1 1 1 1 0 0 0 1 0 0 0 1 1 1 2 2 1 2 2 2 2 1 1 1 1 1 0 0 0 1 1 1 1 2 3 2 2 2 3 3 4 5 7
1 1 1 1 1 1 1 1 1 1 1 1 1 1 1 1 1 2 2 2 2 2 2 2 1 1 1 1 1 1 1 1 2 3 4 4 4 3 3 3 3 3 5
1 1 1 0 1 1 1 1 1 1 1 1 1 1 1 1 1 1 2 2 2 2 2 1 1 1 1 1 2 2 2 1 2 2 3 3 4 4 4 4 4 4 4
1 2 1 1 1 2 2 1 1 2 2 2 2 2 2 3 2 2 2 1 2 2 2 2 2 1 1 1 2 3 3 2 2 2 2 3 3 4 4 5 5 5 5
3 2 1 1 2 2 2 1 1 2 2 2 2 2 2 3 2 2 3 2 1 1 1 2 2 1 1 1 2 3 2 3 3 3 3 3 3 4 5 5 5 4 4
2 1 1 2 2 2 2 1 1 2 2 2 2 2 2 2 2 2 3 3 3 2 2 2 1 2 1 1 3 2 2 3 4 4 4 4 4 4 4 5 5 4 4
2 1 2 2 2 2 2 1 2 2 2 2 2 2 2 2 2 1 2 2 3 3 2 2 2 2 2 2 3 2 2 5 5 5 4 4 4 5 5 5 5 5 4
2 2 2 2 2 2 2 1 2 2 2 3 2 2 3 2 1 1 1 1 1 2 2 2 2 2 2 2 2 2 2 2 2 5 5 5 5 5 5 5 5 5 4
2 2 2 1 2 2 2 1 2 2 2 2 3 2 3 1 1 1 1 1 1 1 2 2 2 1 2 3 3 3 3 3 2 5 6 6 6 5 5 5 5 5 5
1 1 1 2 2 2 2 2 2 2 2 2 2 2 2 1 1 1 1 1 1 1 1 2 2 1 1 1 1 2 2 2 3 4 5 6 6 6 6 6 6 6 6
1 1 1 2 2 1 1 1 1 2 2 2 2 2 2 1 2 1 1 1 1 0 0 1 1 1 1 1 1 1 2 2 2 2 3 4 5 7 7 7 7 7 7
1 1 1 2 1 1 1 1 1 2 2 3 3 2 2 2 2 2 1 1 1 1 0 0 1 1 1 1 1 1 2 2 2 2 1 2 2 2 4 6 8 9 9
1 1 1 2 2 1 2 2 1 2 2 2 3 3 3 3 3 3 2 2 3 3 2 1 1 2 3 2 2 1 1 0 2 2 1 3 2 3 3 4 7 9 10
1 1 1 1 2 3 4 3 3 2 2 2 2 2 3 3 3 2 3 3 2 3 5 3 3 3 3 3 2 1 2 2 3 2 1 2 2 3 4 5 8 10 10
1 1 2 2 2 3 4 3 4 2 1 2 2 2 1 3 3 2 1 2 3 3 3 3 4 5 4 4 4 3 3 2 3 2 2 2 2 2 3 3 6 9 10
1 1 2 2 2 4 5 4 3 1 1 3 3 2 1 2 4 3 1 2 4 4 4 4 6 6 7 6 4 2 1 1 2 2 2 2 2 2 2 2 4 7 9
2 2 2 2 2 3 5 5 3 0 1 3 3 3 3 3 5 4 1 1 3 5 4 4 4 5 5 5 6 5 4 3 2 2 2 2 2 1 2 2 1 2 4
Wind_Direction
174 279 294 294 290 288 287 298 309 311 309 308 301 291 268 234 210 190 227 239 242 241 237 234 234 230 227 223 221 218 217 216 216 213 210 208 205 202 201 199 198 198 198
149 127 308 300 298 296 287 279 296 305 304 309 308 301 267 225 219 214 211 234 242 249 250 248 243 238 232 229 229 225 225 222 219 214 210 208 207 205 204 201 199 199 199
130 132 118 342 303 302 310 323 329 343 330 323 312 309 302 268 233 230 211 222 249 254 257 259 252 249 246 241 236 230 225 223 223 218 211 207 205 206 203 202 200 200 201
116 110 97 341 309 313 341 331 341 336 321 317 308 306 313 292 267 229 203 216 233 260 266 259 250 248 249 243 238 231 225 218 214 212 210 209 205 206 204 202 202 200 200
92 96 79 313 318 0 351 323 341 309 308 315 304 302 316 305 289 245 210 221 229 231 256 270 262 254 255 248 240 232 225 219 208 208 211 213 207 206 207 203 203 203 201
55 84 89 348 7 15 349 331 314 325 292 291 309 322 313 302 292 272 250 255 258 238 230 254 313 294 285 271 254 244 235 225 212 213 216 216 211 205 209 208 208 208 206
354 70 34 359 21 26 336 337 325 331 321 339 10 335 324 311 320 309 324 344 359 333 242 205 235 277 294 280 281 262 244 227 216 216 218 216 210 206 211 214 209 210 211
345 72 76 21 11 17 5 355 4 332 313 7 91 25 333 329 334 337 352 7 0 2 338 306 243 228 326 335 324 308 278 212 203 214 215 216 219 217 215 220 215 214 214
14 23 358 105 28 102 332 321 343 355 294 300 156 143 173 265 309 321 333 336 343 353 319 286 251 210 162 40 251 264 248 193 201 216 210 205 218 227 225 226 226 223 220
359 339 339 31 34 43 307 289 353 260 198 276 289 224 201 196 207 300 314 313 326 324 303 305 299 258 223 190 227 236 198 202 222 229 221 213 218 224 237 236 232 225 221
310 310 334 16 343 302 274 285 303 285 230 229 236 255 279 250 193 199 280 305 324 307 291 279 269 260 244 200 217 218 221 226 231 227 220 213 212 220 229 236 237 234 230
299 309 314 348 292 278 270 277 273 270 250 244 239 223 209 223 230 203 241 277 289 291 291 275 249 245 245 234 235 230 236 249 245 224 208 210 219 224 229 228 230 235 238
260 272 293 284 272 271 269 273 273 273 255 250 249 247 234 230 212 196 201 240 272 289 299 295 257 230 235 229 239 237 231 221 237 230 218 215 221 226 230 228 232 236 237
241 246 248 259 272 289 300 304 293 277 266 263 267 263 251 250 220 199 188 184 254 292 298 286 303 244 230 228 235 246 229 224 223 219 217 218 221 225 227 225 226 232 234
248 253 253 268 290 299 307 314 300 295 288 274 271 265 256 253 240 222 197 180 179 232 273 271 277 263 235 237 238 227 226 232 228 220 221 222 226 225 228 229 224 229 226
250 260 279 281 286 295 302 298 288 287 297 290 275 280 277 260 259 248 212 199 189 188 231 247 249 255 240 244 237 225 228 237 236 232 229 234 234 227 225 225 227 221 222
242 248 258 266 276 289 291 280 276 286 291 290 292 282 284 278 266 268 245 214 206 182 212 270 268 260 232 238 240 239 237 232 238 234 232 237 238 234 231 229 224 220 219
253 242 245 264 272 278 279 272 281 297 287 286 291 295 297 310 306 278 253 250 240 208 190 240 277 261 243 235 234 236 243 233 231 236 233 233 231 231 230 230 225 218 213
256 260 239 254 259 270 276 276 279 294 295 284 282 279 289 320 317 302 286 266 258 248 188 202 261 264 261 233 245 256 249 255 242 234 230 232 232 231 230 231 227 219 214
229 266 271 271 260 268 282 283 301 313 314 309 300 281 275 252 249 275 290 269 233 267 241 209 265 278 274 260 170 229 275 270 262 249 239 234 231 232 231 229 228 225 219
233 247 287 295 286 301 302 298 298 311 322 323 324 315 291 281 265 254 254 244 202 209 241 241 275 290 284 262 231 231 251 277 275 243 240 252 228 232 235 231 227 223 220
269 285 305 297 304 312 319 308 301 309 314 312 314 322 319 308 312 310 294 258 212 198 211 223 247 240 250 241 243 231 220 302 289 265 200 259 214 237 241 229 225 218 215
220 303 309 329 319 308 310 310 300 288 297 300 292 306 326 334 336 320 307 308 295 242 214 202 217 231 227 223 207 235 221 214 239 247 183 264 244 241 246 236 225 219 216
251 280 296 306 302 301 305 309 308 312 312 307 294 273 286 310 312 315 311 322 311 292 255 221 217 230 232 224 207 208 219 240 270 262 180 234 262 255 261 246 232 222 218
269 269 277 291 295 297 303 304 302 322 327 317 315 308 283 291 301 313 328 310 314 308 295 257 235 246 251 246 221 191 217 212 277 278 213 197 249 269 271 258 239 223 219
252 275 295 292 276 279 292 300 292 233 306 306 314 311 297 286 299 313 288 274 287 288 301 307 290 280 265 256 231 205 200 200 225 260 231 186 228 219 297 285 253 226 224